When you browse on this site, cookies collect data to enhance your experience and personalize the content and advertising you see.
Visit our Privacy Policy to learn more. By continuing to use the site, you agree to this use of cookies and data.
  • In France
  • List of Countries
  • For 7 days
  • Water Temperature
  • Weather Map
  • Weather Widgets
  • user-avatar
    Login

    Hourly Weather Bukit Fraser

    Today, 5 June, Friday

    Time Temperature Precipitation Wind Pressure Humidity
    00:00 +19°C° 0.1 mm 0 mps 681 mmHg 93%
    01:00 +18°C° 0 mm 0 mps 681 mmHg 93%
    02:00 +18°C° 0 mm 0 mps 680 mmHg 93%
    03:00 +18°C° 0 mm 0 mps 680 mmHg 93%
    04:00 +20°C° 0 mm 1 mps 679 mmHg 94%
    05:00 +19°C° 0 mm 0 mps 680 mmHg 93%
    06:00 +19°C° 0 mm 0 mps 680 mmHg 92%
    07:00 +19°C° 0 mm 0 mps 681 mmHg 91%
    08:00 +21°C° 0.1 mm 0 mps 681 mmHg 84%
    09:00 +25°C° 0.1 mm 1 mps 682 mmHg 76%
    10:00 +27°C° 0.1 mm 1 mps 682 mmHg 68%
    11:00 +27°C° 0.2 mm 1 mps 682 mmHg 66%
    12:00 +28°C° 0.2 mm 1 mps 682 mmHg 65%
    13:00 +28°C° 0.2 mm 1 mps 681 mmHg 63%
    14:00 +28°C° 0.7 mm 1 mps 681 mmHg 69%
    15:00 +27°C° 0.7 mm 1 mps 680 mmHg 74%
    16:00 +26°C° 0.7 mm 1 mps 679 mmHg 80%
    17:00 +25°C° 0.6 mm 1 mps 679 mmHg 85%
    18:00 +23°C° 0.6 mm 1 mps 679 mmHg 90%
    19:00 +22°C° 0.6 mm 1 mps 680 mmHg 96%
    20:00 +20°C° 0.6 mm 0 mps 680 mmHg 95%
    21:00 +20°C° 0.6 mm 0 mps 680 mmHg 95%
    22:00 +19°C° 0.6 mm 0 mps 681 mmHg 95%
    23:00 +21°C° 0.2 mm 1 mps 680 mmHg 94%

    Tomorrow, 6 June, Saturday

    Time Temperature Precipitation Wind Pressure Humidity
    00:00 +21°C° 0.2 mm 1 mps 680 mmHg 93%
    01:00 +21°C° 0.2 mm 1 mps 680 mmHg 93%
    02:00 +20°C° 0.5 mm 1 mps 680 mmHg 94%
    03:00 +20°C° 0.5 mm 1 mps 679 mmHg 94%
    04:00 +20°C° 0.5 mm 1 mps 679 mmHg 95%
    05:00 +20°C° 1.4 mm 1 mps 679 mmHg 96%
    06:00 +20°C° 1.4 mm 1 mps 680 mmHg 97%
    07:00 +20°C° 1.4 mm 1 mps 680 mmHg 98%
    08:00 +21°C° 0.6 mm 1 mps 681 mmHg 95%
    09:00 +22°C° 0.6 mm 1 mps 681 mmHg 91%
    10:00 +23°C° 0.6 mm 1 mps 682 mmHg 88%
    11:00 +24°C° 0.1 mm 1 mps 682 mmHg 80%
    12:00 +26°C° 0.1 mm 1 mps 682 mmHg 71%
    13:00 +27°C° 0.1 mm 1 mps 681 mmHg 63%
    14:00 +27°C° 0 mm 1 mps 680 mmHg 68%
    15:00 +26°C° 0 mm 1 mps 679 mmHg 72%
    16:00 +25°C° 0 mm 1 mps 679 mmHg 77%
    17:00 +24°C° 0 mm 1 mps 679 mmHg 82%
    18:00 +23°C° 0 mm 1 mps 679 mmHg 86%
    19:00 +22°C° 0 mm 1 mps 679 mmHg 91%
    20:00 +20°C° 0 mm 0 mps 680 mmHg 91%
    21:00 +20°C° 0 mm 0 mps 680 mmHg 91%
    22:00 +20°C° 0 mm 0 mps 680 mmHg 91%
    23:00 +20°C° 0 mm 0 mps 680 mmHg 89%

    Day after tomorrow, 7 June, Sunday

    Time Temperature Precipitation Wind Pressure Humidity
    00:00 +20°C° 0 mm 0 mps 680 mmHg 88%
    01:00 +19°C° 0 mm 0 mps 680 mmHg 87%
    02:00 +19°C° 0 mm 0 mps 679 mmHg 87%
    03:00 +19°C° 0 mm 0 mps 679 mmHg 87%
    04:00 +18°C° 0 mm 0 mps 678 mmHg 87%
    05:00 +19°C° 0 mm 0 mps 679 mmHg 86%
    06:00 +19°C° 0 mm 0 mps 679 mmHg 86%
    07:00 +20°C° 0 mm 0 mps 679 mmHg 85%
    08:00 +22°C° 0 mm 0 mps 680 mmHg 77%
    09:00 +24°C° 0 mm 0 mps 681 mmHg 70%
    10:00 +28°C° 0 mm 1 mps 681 mmHg 62%
    11:00 +28°C° 0.3 mm 1 mps 681 mmHg 61%
    12:00 +29°C° 0.3 mm 1 mps 681 mmHg 60%
    13:00 +29°C° 0.3 mm 1 mps 680 mmHg 60%
    14:00 +28°C° 0.7 mm 1 mps 680 mmHg 66%
    15:00 +27°C° 0.7 mm 1 mps 679 mmHg 72%
    16:00 +26°C° 0.7 mm 1 mps 678 mmHg 78%
    17:00 +25°C° 0.4 mm 1 mps 678 mmHg 83%
    18:00 +23°C° 0.4 mm 1 mps 679 mmHg 88%
    19:00 +20°C° 0.4 mm 0 mps 679 mmHg 93%
    20:00 +20°C° 0.1 mm 0 mps 679 mmHg 93%
    21:00 +19°C° 0.1 mm 0 mps 679 mmHg 93%
    22:00 +19°C° 0.1 mm 0 mps 680 mmHg 93%
    23:00 +19°C° 0 mm 0 mps 680 mmHg 92%

    8 June, Monday

    Time Temperature Precipitation Wind Pressure Humidity
    00:00 +19°C° 0 mm 0 mps 679 mmHg 92%
    01:00 +19°C° 0 mm 0 mps 679 mmHg 92%
    02:00 +19°C° 0 mm 0 mps 679 mmHg 93%
    03:00 +18°C° 0 mm 0 mps 679 mmHg 93%
    04:00 +18°C° 0 mm 0 mps 678 mmHg 93%
    05:00 +19°C° 0 mm 0 mps 679 mmHg 92%
    06:00 +19°C° 0 mm 0 mps 679 mmHg 92%
    07:00 +19°C° 0 mm 0 mps 680 mmHg 91%
    08:00 +22°C° 0 mm 0 mps 680 mmHg 81%
    09:00 +24°C° 0 mm 0 mps 681 mmHg 70%
    10:00 +26°C° 0 mm 0 mps 682 mmHg 60%
    11:00 +27°C° 0.3 mm 0 mps 681 mmHg 61%
    12:00 +29°C° 0.3 mm 1 mps 681 mmHg 62%
    13:00 +29°C° 0.3 mm 1 mps 681 mmHg 63%
    14:00 +28°C° 1.5 mm 1 mps 680 mmHg 71%
    15:00 +25°C° 1.5 mm 0 mps 679 mmHg 79%
    16:00 +24°C° 1.5 mm 0 mps 678 mmHg 87%
    17:00 +22°C° 0.3 mm 0 mps 679 mmHg 89%
    18:00 +21°C° 0.3 mm 0 mps 679 mmHg 92%
    19:00 +20°C° 0.3 mm 0 mps 679 mmHg 95%
    20:00 +20°C° 0 mm 0 mps 679 mmHg 95%
    21:00 +19°C° 0 mm 0 mps 679 mmHg 95%
    22:00 +19°C° 0 mm 0 mps 680 mmHg 95%
    23:00 +19°C° 0 mm 0 mps 679 mmHg 95%

    9 June, Tuesday

    Time Temperature Precipitation Wind Pressure Humidity
    00:00 +19°C° 0 mm 0 mps 679 mmHg 94%
    01:00 +19°C° 0 mm 0 mps 679 mmHg 94%
    02:00 +18°C° 0 mm 0 mps 679 mmHg 94%
    03:00 +18°C° 0 mm 0 mps 679 mmHg 94%
    04:00 +18°C° 0 mm 0 mps 679 mmHg 93%
    05:00 +19°C° 0 mm 0 mps 679 mmHg 93%
    06:00 +19°C° 0 mm 0 mps 679 mmHg 92%
    07:00 +19°C° 0 mm 0 mps 680 mmHg 91%
    08:00 +22°C° 0 mm 0 mps 680 mmHg 81%
    09:00 +24°C° 0 mm 0 mps 681 mmHg 70%
    10:00 +28°C° 0 mm 1 mps 682 mmHg 60%
    11:00 +29°C° 0.2 mm 1 mps 682 mmHg 60%
    12:00 +29°C° 0.2 mm 1 mps 681 mmHg 59%
    13:00 +30°C° 0.2 mm 1 mps 681 mmHg 59%
    14:00 +29°C° 0.6 mm 1 mps 680 mmHg 62%
    15:00 +29°C° 0.6 mm 1 mps 680 mmHg 64%
    16:00 +28°C° 0.6 mm 1 mps 679 mmHg 67%
    17:00 +24°C° 0.1 mm 0 mps 679 mmHg 75%
    18:00 +23°C° 0.1 mm 0 mps 679 mmHg 83%
    19:00 +21°C° 0.1 mm 0 mps 679 mmHg 91%
    20:00 +21°C° 0 mm 0 mps 679 mmHg 92%
    21:00 +20°C° 0 mm 0 mps 679 mmHg 93%
    22:00 +20°C° 0 mm 0 mps 680 mmHg 93%
    23:00 +20°C° 0 mm 0 mps 680 mmHg 94%

    10 June, Wednesday

    Time Temperature Precipitation Wind Pressure Humidity
    00:00 +20°C° 0 mm 0 mps 679 mmHg 94%
    01:00 +19°C° 0 mm 0 mps 679 mmHg 95%
    02:00 +19°C° 0 mm 0 mps 679 mmHg 95%
    03:00 +19°C° 0 mm 0 mps 679 mmHg 95%
    04:00 +19°C° 0 mm 0 mps 679 mmHg 96%
    05:00 +19°C° 0 mm 0 mps 679 mmHg 94%
    06:00 +20°C° 0 mm 0 mps 679 mmHg 93%
    07:00 +20°C° 0 mm 0 mps 680 mmHg 92%
    08:00 +22°C° 0 mm 0 mps 681 mmHg 81%
    09:00 +27°C° 0 mm 1 mps 681 mmHg 70%
    10:00 +29°C° 0 mm 1 mps 682 mmHg 60%
    11:00 +29°C° 0.1 mm 1 mps 681 mmHg 57%
    12:00 +30°C° 0.1 mm 1 mps 681 mmHg 54%
    13:00 +31°C° 0.1 mm 1 mps 681 mmHg 51%
    14:00 +30°C° 0.2 mm 1 mps 680 mmHg 56%
    15:00 +29°C° 0.2 mm 1 mps 680 mmHg 61%
    16:00 +29°C° 0.2 mm 1 mps 679 mmHg 67%
    17:00 +27°C° 0.5 mm 1 mps 679 mmHg 74%
    18:00 +23°C° 0.5 mm 0 mps 679 mmHg 81%
    19:00 +21°C° 0.5 mm 0 mps 679 mmHg 89%
    20:00 +21°C° 0.5 mm 0 mps 679 mmHg 90%
    21:00 +22°C° 0.5 mm 1 mps 679 mmHg 91%
    22:00 +22°C° 0.5 mm 1 mps 680 mmHg 92%
    23:00 +22°C° 0.5 mm 1 mps 680 mmHg 93%
    Show more